Regional Weather Roundup
Issued by NWS

Home | Current Version | Previous Version | Graphics & Text | Print | Product List | Glossary On
Versions: 1 2 3 4 5 6 7 8 9 10 11 12 13 14 15 16 17 18 19 20 21 22 23 24 25 26 27 28 29 30 31 32 33 34 35 36 37 38 39 40 41 42 43 44 45 46 47 48 49 50
000
ASUS45 KABQ 040301
RWRNM
NEW MEXICO REGIONAL WEATHER ROUNDUP
NATIONAL WEATHER SERVICE ALBUQUERQUE NM
900 PM MDT MON AUG 03 2015

NOTE: "FAIR" MEANS FEW OR NO CLOUDS BELOW 12,000 FEET AGL WITH NO
       SIGNIFICANT WEATHER OR OBSTRUCTIONS TO VISION.

      THIS PRODUCT IS RELEASED AS TWO VERSIONS.  ONE VERSION NEAR
      THE TOP OF THE HOUR CONTAINING PRELIMINARY DATA FROM ALBUQUERQUE
      AND OTHER STATIONS.  A FINAL VERSION WITH ADDITIONAL DATA IS
      ISSUED ABOUT 10 MINUTES AFTER THE HOUR.

NMZ501-503-504-510>518-040400-
NORTHWEST PLATEAU/NORTHCENTRAL MOUNTAINS

CITY           SKY/WX    TMP DP  RH WIND       PRES   REMARKS
FARMINGTON     CLEAR     76  41  28 NW8       30.10R
LOS ALAMOS     CLEAR     71  46  40 W7        30.24R
SANTA FE       CLEAR     69  46  43 NW7       30.15R
TAOS           PTCLDY    66  43  42 N9        30.23R

$$
NMZ402-403-502-505>509-040400-
WESTCENTRAL MOUNTAINS/SOUTHWEST MOUNTAINS

CITY           SKY/WX    TMP DP  RH WIND       PRES   REMARKS
GALLUP         CLEAR     71  51  49 CALM      30.19R
GRANTS         CLEAR     65  55  70 W6        30.22R

$$
NMZ407-409-411-412-040400-
SOUTHERN DESERTS

CITY           SKY/WX    TMP DP  RH WIND       PRES   REMARKS
DEMING         CLOUDY    78  54  43 SW10      30.03R
HOLLOMAN AFB     N/A     85  54  34 S16       29.98R
ALAMOGORDO     PTCLDY    82  55  39 S12       30.01R
T OR C         MOCLDY    85  53  33 SW7       30.04R

$$
NMZ519>523-040400-
CENTRAL VALLEYS/CENTRAL HIGHLANDS

CITY           SKY/WX    TMP DP  RH WIND       PRES   REMARKS
ALBUQUERQUE    PTCLDY    83  44  25 NW9       30.10R
DOUBLE EAGLE   CLEAR     70  50  49 NW7       30.14S
MORIARTY ARPT    N/A     70  47  43 W7        30.16S
CLINES CORNERS CLEAR     65  49  56 W9        30.20R
BELEN          FAIR      76  42  29 N7        30.08S
SOCORRO        NOT AVBL

$$
NMZ524>526-539-540-040400-
SOUTHCENTRAL MOUNTAINS

CITY           SKY/WX    TMP DP  RH WIND       PRES   REMARKS
RUIDOSO        NOT AVBL

$$
NMZ527>531-040400-
NORTHEAST HIGHLANDS/NORTHEAST PLAINS

CITY           SKY/WX    TMP DP  RH WIND       PRES   REMARKS
RATON          TSTM      64  56  75 NE6       30.14R
CLAYTON        CLOUDY    64  60  87 CALM      30.05R

$$
NMZ532>537-040400-
EASTCENTRAL PLAINS

CITY           SKY/WX    TMP DP  RH WIND       PRES   REMARKS
TUCUMCARI      CLEAR     77  64  64 S9        29.95S
CANNON AFB     PTCLDY    71  64  78 S6        30.02R
CLOVIS AIRPORT MOCLDY    72  61  68 S6        30.03R

$$
NMZ028-029-538-040400-
SOUTHEAST PLAINS

CITY           SKY/WX    TMP DP  RH WIND       PRES   REMARKS
ROSWELL        PTCLDY    72  64  76 S6        29.99R
CARLSBAD       CLOUDY    79  62  56 S9        29.98R
HOBBS            N/A    N/A N/A N/A MISG        N/A


$$



USA.gov is the U.S. government's official web portal to all federal, state and local government web resources and services.